Portada
METAR-TAF:

METAR-TAF

Aeroports :

Aurora, Illinois, Estats Units d'Amèrica

latitud: 41-46-12N, longitud: 088-28-53W, altitud: 215 m

Observació

L'informe es va fer fa 45 minuts, a les 01:52 UTC
Vent 3 kt del Est
Temperatura -1°C
Humitat 80%
Pressió 1017 hPa
Visibilitat: 9.7 km
Cel clar
calitja

METAR: KARR 120152Z 10003KT 6SM HZ CLR M01/M04 A3002 RMK AO2 SLP173 T10111039

Hora: 20:37 (02:37 UTC)


TAF: manca

Observacions i pronòstics meteorològics de més de 4000 aeroports (METAR i TAF).

Les estacions disponibles són els punts grocs i vermells al mapa.

Posi el ratolí al punt desitjat per veure el nom de l'estació.

Feu clic per veure les observacions i els pronòstics meteorològics.

Per canviar el mapa: feu clic els botons verds amb una creu de color negre per apropar; al botó verd amb un guió per allunyar la imatge; o en les fletxes verdes per a mapes adjacents.


METAR-TAF: